Weather History for LIRS - September, 2013

Change the Weather History Date:

Sunday, September 15, 2013

  Actual Average Record
Temperature  
Mean Temperature 70 °F -  
Max Temperature 77 °F 76 °F 89 °F (2011)
Min Temperature 62 °F 55 °F 50 °F (1996)
Cooling Degree Days 4    
Growing Degree Days 20 (Base 50)    
Moisture  
Dew Point 64 °F    
Average Humidity 81    
Maximum Humidity 100    
Minimum Humidity 59    
Precipitation  
Precipitation 0.00 in 0.10 in - ()
Sea Level Pressure  
Sea Level Pressure 29.93 in    
Wind  
Wind Speed 6 mph ()    
Max Wind Speed 12 mph    
Max Gust Speed -    
Visibility 13.3 miles    
Events Rain , Thunderstorm    
Averages and records for this station are not official NWS values.
T = Trace of Precipitation, MM = Missing Value Source: Averaged Metar Reports

Daily Weather History Graph

Daily Weather History Graph

Search for Another Location

Airport or City:

Trip Planner

Search our weather history database for the weather conditions in past years. The results will help you decide how hot, cold, wet, or windy it might be!

Date:

Astronomy

Sep. 15, 2013 Rise Set
Actual Time 6:55 AM CEST 7:25 PM CEST
Civil Twilight 6:27 AM CEST 7:53 PM CEST
Nautical Twilight 5:53 AM CEST 8:27 PM CEST
Astronomical Twilight 5:19 AM CEST 9:01 PM CEST
Moon 4:45 PM CEST (9/15) 2:09 AM CEST (9/15)
Length of Visible Light 13h 26m
Length of Day
12h 30m
Waxing Gibbous, 79% of the Moon is Illuminated
Sep 15
Waxing Gibbous
Sep 19
Full
Sep 27
Last Quarter
Oct 5
New
Oct 12
First Quarter

Hourly Weather History & Observations

Time (CEST) Temp. Dew Point Humidity Pressure Visibility Wind Dir Wind Speed Gust Speed Precip Events Conditions
12:55 AM 66.2 °F 62.6 °F 88% 30.04 in - North - - N/A   Partly Cloudy
1:55 AM 66.2 °F 62.6 °F 88% 30.04 in - North - - N/A   Partly Cloudy
2:00 AM 67 °F 63 °F 83% 30.05 in 16 mi ENE 4.6 mph - -   Scattered Clouds
2:55 AM 64.4 °F 60.8 °F 88% 30.04 in - North - - N/A   Clear
3:55 AM 64.4 °F 60.8 °F 88% 30.04 in - North - - N/A   Clear
4:55 AM 62.6 °F 60.8 °F 94% 30.01 in - North - - N/A   Partly Cloudy
5:55 AM 62.6 °F 60.8 °F 94% 30.01 in - North - - N/A   Partly Cloudy
6:55 AM 62.6 °F 60.8 °F 94% 29.98 in - North - - N/A   Scattered Clouds
7:55 AM 62.6 °F 62.6 °F 100% 30.01 in - North - - N/A   Partly Cloudy
8:55 AM 66.2 °F 62.6 °F 88% 29.98 in - North - - N/A   Scattered Clouds
9:55 AM 73.4 °F 64.4 °F 73% 29.98 in - North - - N/A   Mostly Cloudy
10:55 AM 75.2 °F 64.4 °F 69% 29.98 in - North - - N/A   Mostly Cloudy
11:55 AM 77.0 °F 64.4 °F 65% 29.95 in - North - - N/A   Scattered Clouds
12:55 PM 75.2 °F 62.6 °F 65% 29.95 in - North - - N/A   Scattered Clouds
1:55 PM 75.2 °F 64.4 °F 69% 29.92 in 6.2 mi South 11.5 mph - N/A   Scattered Clouds
2:00 PM 76 °F 64 °F 59% 29.94 in 19 mi South 11.5 mph - -   Overcast
2:55 PM 77.0 °F 68.0 °F 74% 29.89 in - North - - N/A Rain Light Rain
3:55 PM 75.2 °F 68.0 °F 78% 29.89 in - North - - N/A Rain Light Rain
4:55 PM 75.2 °F 69.8 °F 83% 29.86 in - North - - N/A   Scattered Clouds
5:55 PM 75.2 °F 68.0 °F 78% 29.83 in - North - - N/A   Scattered Clouds
6:55 PM 73.4 °F 66.2 °F 78% 29.83 in - North - - N/A   Scattered Clouds
7:55 PM 73.4 °F 66.2 °F 78% 29.83 in - North - - N/A   Scattered Clouds
8:00 PM 73 °F 65 °F 71% 29.85 in 12 mi South 5.8 mph - -   Partly Cloudy
8:55 PM 71.6 °F 68.0 °F 88% 29.83 in - North - - N/A   Scattered Clouds
9:55 PM 71.6 °F 68.0 °F 88% 29.83 in - North - - N/A Thunderstorm Thunderstorm
10:55 PM 69.8 °F 64.4 °F 83% 29.83 in - North - - N/A   Scattered Clouds
11:55 PM 68.0 °F 64.4 °F 88% 29.80 in - North - - N/A   Scattered Clouds